Weather History for Chino, CA

Change the Weather History Date:

Monday, December 10, 2012

  Actual Average Record
Temperature  
Mean Temperature 60 °F -  
Max Temperature 75 °F 65 °F 81 °F (2004)
Min Temperature 44 °F 37 °F 30 °F (2013)
Degree Days  
Heating Degree Days 6    
Growing Degree Days 10 (Base 50)    
Moisture  
Dew Point 38 °F    
Average Humidity 56    
Maximum Humidity 93    
Minimum Humidity 16    
Precipitation  
Precipitation 0.00 in - - ()
Sea Level Pressure  
Sea Level Pressure 30.10 in    
Wind  
Wind Speed 4 mph (NNE)    
Max Wind Speed 9 mph    
Max Gust Speed -    
Visibility 8 miles    
Events      
Averages and records for this station are not official NWS values.
T = Trace of Precipitation, MM = Missing Value Source: NWS Daily Summary

Daily Weather History Graph

Daily Weather History Graph

Search for Another Location

Airport:

Trip Planner

Search our weather history database for the weather conditions in past years. The results will help you decide how hot, cold, wet, or windy it might be!

Date:

Astronomy

Dec. 10, 2012 Rise Set
Actual Time 6:45 AM PST 4:41 PM PST
Civil Twilight 6:17 AM PST 5:09 PM PST
Nautical Twilight 5:46 AM PST 5:40 PM PST
Astronomical Twilight 5:16 AM PST 6:11 PM PST
Moon 3:39 AM PST (12/10) 2:30 PM PST (12/10)
Length of Visible Light 10h 51m
Length of Day
9h 56m
Waning Crescent, 9% of the Moon is Illuminated
Dec 10
Waning Crescent
Dec 13
New
Dec 19
First Quarter
Dec 28
Full
Jan 4
Last Quarter

Hourly Weather History & Observations

Time (PST) Temp. Windchill Dew Point Humidity Pressure Visibility Wind Dir Wind Speed Gust Speed Precip Events Conditions
12:36 AM 48.2 °F - 46.4 °F 93% 30.13 in 2.5 mi ESE 9.2 mph - N/A   Clear
12:46 AM 51.8 °F - 46.4 °F 82% 30.13 in 3.0 mi East 6.9 mph - N/A   Haze
12:53 AM 53.1 °F - 45.0 °F 74% 30.12 in 4.0 mi ESE 8.1 mph - N/A   Haze
1:53 AM 46.9 °F - 39.9 °F 77% 30.13 in 4.0 mi Calm Calm - N/A   Haze
2:53 AM 50.0 °F - 39.0 °F 66% 30.13 in 5.0 mi Variable 4.6 mph - N/A   Haze
4:53 AM 52.0 °F - 34.0 °F 50% 30.12 in 9.0 mi ESE 5.8 mph - N/A   Clear
5:53 AM 44.1 °F - 37.9 °F 79% 30.13 in 5.0 mi Calm Calm - N/A   Haze
6:53 AM 44.1 °F 41.5 °F 37.9 °F 79% 30.14 in 10.0 mi WSW 4.6 mph - N/A   Clear
7:53 AM 50.0 °F - 41.0 °F 71% 30.14 in 10.0 mi North 3.5 mph - N/A   Clear
8:53 AM 60.1 °F - 43.0 °F 53% 30.14 in 10.0 mi Calm Calm - N/A   Clear
9:53 AM 66.0 °F - 37.0 °F 34% 30.15 in 10.0 mi Calm Calm - N/A   Clear
10:53 AM 71.1 °F - 32.0 °F 24% 30.14 in 10.0 mi Calm Calm - N/A   Clear
11:53 AM 73.0 °F - 32.0 °F 22% 30.12 in 10.0 mi NNW 3.5 mph - N/A   Clear
12:53 PM 73.9 °F - 28.9 °F 19% 30.08 in 10.0 mi West 4.6 mph - N/A   Clear
1:53 PM 75.9 °F - 27.0 °F 16% 30.06 in 10.0 mi Calm Calm - N/A   Clear
2:53 PM 75.9 °F - 26.1 °F 16% 30.05 in 10.0 mi Calm Calm - N/A   Clear
3:53 PM 73.0 °F - 35.1 °F 25% 30.04 in 10.0 mi West 6.9 mph - N/A   Clear
4:53 PM 62.1 °F - 39.0 °F 43% 30.04 in 10.0 mi WSW 3.5 mph - N/A   Partly Cloudy
5:53 PM 61.0 °F - 37.0 °F 41% 30.06 in 10.0 mi Calm Calm - N/A   Clear
6:53 PM 57.9 °F - 39.9 °F 51% 30.07 in 10.0 mi Calm Calm - N/A   Clear
7:53 PM 50.0 °F - 42.1 °F 74% 30.07 in 10.0 mi Calm Calm - N/A   Clear
8:53 PM 50.0 °F - 41.0 °F 71% 30.07 in 7.0 mi Calm Calm - N/A   Clear
9:53 PM 50.0 °F - 41.0 °F 71% 30.08 in 7.0 mi ENE 3.5 mph - N/A   Clear
10:53 PM 44.1 °F - 39.0 °F 82% 30.07 in 6.0 mi Calm Calm - N/A   Haze
11:53 PM 44.1 °F - 39.9 °F 85% 30.07 in 7.0 mi Calm Calm - N/A   Clear